Showing default

CYGFM08, 41888

Orbit data source: Space-Track

CYGFM08, 41888 is an American payload satellite in LEO that was launched on Thu, 15 Dec 2016 UTC via a PEGASUS XL launch vehicle from the Pegasus Launch, Eastern Range Air Space (ERAS). Payload-class satellites include a variety of spacecraft equipped with specific instruments for various scientific and technological missions. These include communications satellites like Starlink; space stations such as the ISS; scientific satellites like the Hubble; Earth observation satellites from companies like Planet Labs, Umbra, and HawkEye 360; GPS; miniature CubeSats for education and research; and military/defense satellites.

Loading next visibility...
Identifier
41888, 2016-078E
Orbit
LEO
Country
Flag of USUS
Related business
Manufacturer
SST-US
Mission
Extended mission Civil Earth Obs Sci
Bus & Motor
CYGNSS, Unknown motor
Mass
29 kg wet, 29 kg dry
Launch date (UTC)
2016-12-15 (9 years ago)
Launch vehicle
PEGASUS XL
Launch site
Pegasus Launch, Eastern Range Air Space (ERAS)
Object type
Payload
Rocket body
Debris
Shape & HBR
Half Hex Cyl + 2 Pan, 2.5 m
Radar Cross Section
0.450 m², Medium (>0.1 m² and < 1m²)

Expand to show TLE details & history
Last TLE update: 11 hours ago

TLE from 11 hours ago
0 CYGFM08
1 41888U 16078E   25291.32188439  .00027612  00000-0  53883-3 0  9996
2 41888  34.9470  34.6878 0010724  42.5635 317.5916 15.46447812491348
Epoch: 2025-10-18T07:43Z
TLE epoch observation values (Epoch: 2025-10-18T07:43:30.811Z)
Latitude
Longitude
-108.24514°
Altitude
420.634 km
Speed
7.664 km/s
True Right ascension
02h 18m 45s
True Declination
0° 00' 00"
Sunlit
Object was in full shadow at epoch
Visualization orbit readout
Latitude
Unknown
Longitude
Unknown
Altitude
Unknown
Speed
Unknown
Apparent Right ascension
Unknown
Apparent Declination
Unknown
Sunlit
N/A
Visualization observer readout
Local Sidereal Time
13:29:56
Azimuth
Unknown
Elevation
Unknown
Doppler factor
Unknown
Orbital elements
Apogee altitude
437.721 km
Perigee altitude
423.118 km
Semi-major axis
6,808.556 km
Eccentricity
0.00107
Inclination
34.947°
RAAN
34.6878°
Arg. of periapsis
42.5635°
True anomaly
317.50864°
Mean anomaly
317.5916°
Eccentric anomaly
317.55013°
Mean motion
3.86332 °/min
Orbital period
93.18 mins
BSTAR
0.00053883
Loading maneuver chart data...
Computing Atmospheric mass density...
Loading historical data...
Loading historical data...
Loading historical data...
Loading historical data...
Loading historical data...
Loading historical data...
Loading historical data...

Documentation

Showing up to 5 results
|